Air Force Academy, CO

3:04 PM MDT on May 29, 2017 (GMT -0600)
Usaf Academy

Weather History for KAFF - September, 2013

Change the Weather History Date:

Sunday, September 22, 2013

  Actual Average Record
Temperature  
Mean Temperature 62 °F -  
Max Temperature 75 °F 67 °F 81 °F (2016)
Min Temperature 48 °F 40 °F 35 °F (1999)
Degree Days  
Heating Degree Days 4    
Growing Degree Days 12 (Base 50)    
Moisture  
Dew Point 45 °F    
Average Humidity 63    
Maximum Humidity 91    
Minimum Humidity 28    
Precipitation  
Precipitation 0.11 in - - ()
Sea Level Pressure  
Sea Level Pressure 29.67 in    
Wind  
Wind Speed 8 mph (SW)    
Max Wind Speed 31 mph    
Max Gust Speed 47 mph    
Visibility 10 miles    
Events Rain , Thunderstorm    
Averages and records for this station are not official NWS values.
T = Trace of Precipitation, MM = Missing Value Source: NWS Daily Summary

Daily Weather History Graph

Daily Weather History Graph

Search for Another Location

Airport or City:

Trip Planner

Search our weather history database for the weather conditions in past years. The results will help you decide how hot, cold, wet, or windy it might be!

Date:

Astronomy

Sep. 22, 2013 Rise Set
Actual Time 6:47 AM MDT 6:55 PM MDT
Civil Twilight 6:20 AM MDT 7:22 PM MDT
Nautical Twilight 5:49 AM MDT 7:53 PM MDT
Astronomical Twilight 5:17 AM MDT 8:25 PM MDT
Moon 8:49 PM MDT (9/22) 10:07 AM MDT (9/22)
Length of Visible Light 13h 01m
Length of Day
12h 08m
Waning Gibbous, 88% of the Moon is Illuminated
Sep 22
Waning Gibbous
Sep 26
Last Quarter
Oct 4
New
Oct 11
First Quarter
Oct 18
Full

Hourly Weather History & Observations

Time (MDT) Temp. Dew Point Humidity Pressure Visibility Wind Dir Wind Speed Gust Speed Precip Events Conditions
12:58 AM 49.3 °F 42.6 °F 78% 29.72 in 10.0 mi North 6.9 mph - N/A   Clear
1:58 AM 50.0 °F 42.3 °F 75% 29.70 in 10.0 mi NNW 6.9 mph - N/A   Clear
2:58 AM 50.4 °F 41.9 °F 73% 29.70 in 10.0 mi WNW 2.3 mph - N/A   Clear
3:58 AM 54.0 °F 39.9 °F 59% 29.68 in 10.0 mi NNW 5.8 mph - N/A   Clear
4:58 AM 49.5 °F 41.4 °F 74% 29.68 in 10.0 mi North 8.1 mph - N/A   Clear
5:58 AM 48.6 °F 40.6 °F 74% 29.70 in 10.0 mi NNE 8.1 mph - N/A   Partly Cloudy
6:58 AM 49.5 °F 41.4 °F 74% 29.70 in 10.0 mi North 4.6 mph - N/A   Mostly Cloudy
7:58 AM 58.8 °F 40.6 °F 51% 29.70 in 10.0 mi Calm Calm - N/A   Scattered Clouds
8:58 AM 68.4 °F 43.9 °F 41% 29.64 in 10.0 mi Calm Calm - N/A   Partly Cloudy
9:58 AM 67.3 °F 42.6 °F 41% 29.64 in 10.0 mi ENE 1.2 mph - N/A   Partly Cloudy
10:58 AM 70.2 °F 44.8 °F 40% 29.67 in 10.0 mi Variable 1.2 mph - N/A   Partly Cloudy
11:58 AM 75.0 °F 39.9 °F 28% 29.61 in 10.0 mi SE 8.1 mph - N/A   Scattered Clouds
12:58 PM 73.6 °F 40.5 °F 30% 29.61 in 10.0 mi South 3.5 mph - N/A   Partly Cloudy
1:58 PM 71.4 °F 39.0 °F 31% 29.60 in 10.0 mi South 15.0 mph - N/A   Scattered Clouds
2:12 PM 73.4 °F 39.2 °F 29% 29.81 in 10.0 mi South 15.0 mph - N/A   Scattered Clouds
2:58 PM 70.9 °F 40.5 °F 33% 29.57 in 10.0 mi SSE 10.4 mph - N/A   Partly Cloudy
3:58 PM 71.8 °F 40.3 °F 32% 29.50 in 10.0 mi SE 10.4 mph - N/A   Partly Cloudy
4:13 PM 71.6 °F 41.0 °F 33% 29.76 in 10.0 mi SSW 12.7 mph - N/A Rain Light Rain
4:28 PM 68.0 °F 37.4 °F 33% 29.75 in 10.0 mi SSW 5.8 mph 20.7 mph N/A   Partly Cloudy
4:58 PM 68.0 °F 40.8 °F 37% 29.52 in 10.0 mi NNW 5.8 mph - 0.00 in   Clear
5:36 PM 66.2 °F 41.0 °F 40% 29.75 in 10.0 mi WSW 16.1 mph 23.0 mph N/A Thunderstorm Thunderstorm
5:41 PM 64.4 °F 42.8 °F 45% 29.75 in 7.0 mi WSW 31.1 mph 43.7 mph N/A Rain , Thunderstorm Light Thunderstorms and Rain
5:46 PM 60.8 °F 48.2 °F 63% 29.75 in 2.5 mi West 24.2 mph 43.7 mph N/A Rain , Thunderstorm Heavy Thunderstorms and Rain
5:54 PM 57.2 °F 46.4 °F 67% 29.73 in 4.0 mi WNW 18.4 mph 47.2 mph N/A Rain , Thunderstorm Light Thunderstorms and Rain
5:58 PM 57.6 °F 46.4 °F 66% 29.57 in 10.0 mi WNW 10.4 mph 47.2 mph 0.07 in Rain , Thunderstorm Light Thunderstorms and Rain
6:01 PM 57.2 °F 46.4 °F 67% 29.76 in 10.0 mi WSW 16.1 mph 21.9 mph N/A Rain , Thunderstorm Light Thunderstorms and Rain
6:02 PM 57.2 °F 46.4 °F 67% 29.77 in 10.0 mi WSW 18.4 mph 26.5 mph N/A Rain , Thunderstorm Light Rain
6:08 PM 57.2 °F 46.4 °F 67% 29.77 in 10.0 mi West 21.9 mph 27.6 mph N/A   Scattered Clouds
6:20 PM 57.2 °F 46.4 °F 67% 29.77 in 10.0 mi West 16.1 mph 26.5 mph N/A   Light Drizzle
6:27 PM 57.2 °F 46.4 °F 67% 29.78 in 10.0 mi SSW 12.7 mph 25.3 mph N/A   Light Drizzle
6:58 PM 57.4 °F 46.6 °F 67% 29.61 in 10.0 mi WSW 5.8 mph 26.5 mph 0.01 in Rain Light Rain
7:09 PM 55.4 °F 46.4 °F 72% 29.74 in 10.0 mi NE 5.8 mph - N/A   Scattered Clouds
7:58 PM 53.8 °F 49.3 °F 85% 29.53 in 10.0 mi North 6.9 mph - 0.01 in   Clear
8:58 PM 52.3 °F 49.6 °F 91% 29.50 in 10.0 mi NNE 2.3 mph - N/A   Partly Cloudy
9:33 PM 53.6 °F 48.2 °F 82% 29.73 in 10.0 mi Calm Calm - N/A   Light Drizzle
9:58 PM 53.1 °F 50.5 °F 91% 29.50 in 10.0 mi SSE 4.6 mph - 0.00 in   Light Drizzle
10:03 PM 53.6 °F 50.0 °F 88% 29.72 in 10.0 mi SSE 5.8 mph - N/A   Partly Cloudy
10:55 PM 53.6 °F 48.2 °F 82% 29.72 in 10.0 mi Variable 4.6 mph - N/A   Light Drizzle
10:58 PM 53.4 °F 48.4 °F 83% 29.48 in 10.0 mi Variable 2.3 mph - 0.00 in   Light Drizzle
11:08 PM 53.6 °F 48.2 °F 82% 29.73 in 10.0 mi SSE 8.1 mph - N/A   Light Drizzle
11:13 PM 51.8 °F 48.2 °F 88% 29.73 in 10.0 mi SSE 9.2 mph - N/A   Light Drizzle
11:14 PM 51.8 °F 48.2 °F 88% 29.73 in 10.0 mi SSE 9.2 mph - N/A   Mostly Cloudy
11:19 PM 51.8 °F 48.2 °F 88% 29.73 in 10.0 mi SSE 13.8 mph - N/A   Overcast
11:20 PM 51.8 °F 48.2 °F 88% 29.73 in 10.0 mi SSE 12.7 mph - N/A   Light Drizzle
11:58 PM 51.8 °F 48.2 °F 88% 29.44 in 10.0 mi South 2.3 mph - 0.02 in Rain Light Rain